Showing default

OTB, 44341

Orbit data source: Space-Track

OTB, 44341 is a payload satellite owned by GA-EMS (US) in LEO that was launched on Tue, 25 Jun 2019 UTC via an FALCON HEAVY launch vehicle from the Air Force Eastern Test Range (AFETR). Payload-class satellites include a variety of spacecraft equipped with specific instruments for various scientific and technological missions. These include communications satellites like Starlink; space stations such as the ISS; scientific satellites like the Hubble; Earth observation satellites from companies like Planet Labs, Umbra, and HawkEye 360; GPS; miniature CubeSats for education and research; and military/defense satellites.

Not visible in the next 10 days
Identifier
44341, 2019-036C
Orbit
LEO
Country
Flag of USUS
Related business
Manufacturer
GA-EMS
Mission
Operational Commercial Tech/Misc
Bus & Motor
SSTL-150, Unknown motor
Mass
100 kg wet, 100 kg dry
Launch date (UTC)
2019-06-25 (6 years ago)
Launch vehicle
FALCON HEAVY
Launch site
Air Force Eastern Test Range (AFETR)
Object type
Payload
Rocket body
Debris
Shape & HBR
Box + 4 Pan, 1.5 m
Radar Cross Section
1.570 m², Large (>1 m²)

Expand to show TLE details & history
Last TLE update: 2 days ago

TLE from 2 days ago
0 OTB
1 44341U 19036C   25259.74532430  .00001296  00000-0  23889-3 0  9997
2 44341  23.9967 271.6076 0010783 237.7827 122.1620 14.56352145331454
Epoch: 2025-09-16T17:53Z
TLE epoch observation values (Epoch: 2025-09-16T17:53:16.019Z)
Latitude
0.00001°
Longitude
7.35967°
Altitude
706.974 km
Speed
7.503 km/s
True Right ascension
18h 06m 25s
True Declination
0° 00' 00"
Sunlit
Object was in daylight at epoch
Visualization orbit readout
Latitude
Unknown
Longitude
Unknown
Altitude
Unknown
Speed
Unknown
Apparent Right ascension
Unknown
Apparent Declination
Unknown
Sunlit
N/A
Visualization observer readout
Local Sidereal Time
05:28:22
Azimuth
Unknown
Elevation
Unknown
Doppler factor
Unknown
Orbital elements
Apogee altitude
717.302 km
Perigee altitude
702.016 km
Semi-major axis
7,087.796 km
Eccentricity
0.00108
Inclination
23.9967°
RAAN
271.6076°
Arg. of periapsis
237.7827°
True anomaly
122.26653°
Mean anomaly
122.162°
Eccentric anomaly
122.21427°
Mean motion
3.63728 °/min
Orbital period
98.98 mins
BSTAR
0.00023889
Loading maneuver chart data...
Computing Atmospheric mass density...
Loading historical data...
Loading historical data...
Loading historical data...
Loading historical data...
Loading historical data...
Loading historical data...
Loading historical data...

Documentation

Showing up to 5 results
|